www.pogodaiklimat.ru

Погода и климат >> Архив погоды >> Россия >> Амурская область >> Завитая


ПОГОДА в Завитае

  • Прогноз погоды в Завитае
  • Монитор погоды в Завитае

АРХИВ ПОГОДЫ в Завитае

Время (UTC), дата Ветер
(напр.,м/с)
 
Видим.   Явления Облачность Т
(С)
Тd
(С)
f
(%)
Тe
(С)
Тes
(С)
Комфортность P
(гПа)
Po
(гПа)
Тmin
(С)
Tmax
(С)
R
(мм)
R24
(мм)
S
(см)
00 15.08 В 2 20 км 10/10 600 м
[Cb calv]
+18.1 +15.3 84 +19 +19 1003.4 975.9 +17.0 0.6
03 15.08 В 1 20 км 10/10 1000 м
[Sc]
+21.3 +15.4 69 +24 +24 комфорт 1003.1 975.9
06 15.08 ЮВ 1 20 км 10/3 1000 м
[Sc Ac trans]
+22.7 +15.8 65 +27 +30 душно 1002.7 975.6
09 15.08 ЮВ 1 20 км 10/10 1000 м
[Sc]
+22.0 +15.8 68 +26 +26 душно 1002.7 975.5
12 15.08 штиль 0 20 км 3/0
[Ac trans]
+17.5 +15.5 88 +17 +17 1003.1 975.6 +23.2
15 15.08 СВ 1 20 км 10/10 1000 м
[Sc]
+17.2 +15.4 89 +18 +18 1002.7 975.1
18 15.08 В 1 20 км 10/10 600 м
[Cb calv]
+17.6 +14.9 84 +19 +19 1001.7 974.2
21 15.08 В 2 20 км {ливн. осадки} 10/10 600 м
[Cb calv]
+17.2 +14.5 84 +18 +18 1001.3 973.7
00 16.08 С 3 10 км слаб. ливневой дождь 10/10 600 м
[Cb calv]
+16.8 +14.4 86 +17 +17 1000.9 973.4 +16.7 0.0
03 16.08 В 3 4000 м слаб. ливневой дождь 10/10 600 м
[Cb calv]
+17.0 +14.8 87 +17 +17 1000.3 972.8 +16.7
06 16.08 СВ 3 4000 м слаб. ливневой дождь 10/10 600 м
[Cb calv]
+17.0 +15.0 88 +17 +17 999.0 971.5
09 16.08 СВ 2 4000 м слаб. ливневой дождь 10/10 600 м
[Cb calv]
+16.4 +14.8 90 +16 +16 998.3 970.7
12 16.08 СВ 3 4000 м слаб. ливневой дождь 10/10 600 м
[Cb calv]
+15.3 +13.7 90 +15 +15 997.6 970.0 +17.2 20
15 16.08 СВ 2 4000 м слаб. ливневой дождь 10/10 600 м
[Cb calv]
+14.6 +13.0 90 +14 +14 996.6 968.9
18 16.08 В 2 4000 м дождь 10/0
[As op]
+14.2 +12.8 91 +14 +14 996.0 968.2
21 16.08 В 2 10 км слаб. дождь 10/0
[As op]
+14.1 +12.7 91 +14 +14 995.6 967.9
00 17.08 В 3 10 км слаб. дождь 10/0 600 м
[As op]
+15.3 +13.3 88 +15 +16 996.1 968.5 +14.1 8
03 17.08 В 4 4000 м слаб. морось {дождь} 10/10 600 м
[St]
+16.1 +13.4 84 +15 +15 996.5 969.0
06 17.08 В 4 10 км слаб. морось 10/10 600 м
[St]
+16.7 +13.4 81 +16 +16 996.5 969.0
09 17.08 В 4 20 км в посл. час ливневой дождь {морось} 10/10 600 м
[Cb calv]
+15.1 +13.0 87 +14 +14 997.0 969.4
12 17.08 В 2 10 км слаб. ливневой дождь 10/10 600 м
[Cb calv]
+14.1 +12.3 89 +14 +14 998.3 970.5 +17.3 2
15 17.08 В 3 20 км {ливн. осадки} 10/10 600 м
[Cb calv]
+13.0 +11.4 90 +12 +12 998.9 971.0
18 17.08 В 3 10 км слаб. ливневой дождь 10/10 600 м
[Cb calv]
+12.4 +10.8 90 +11 +11 999.1 971.1
21 17.08 В 3 4000 м слаб. ливневой дождь 10/10 600 м
[Cb calv]
+11.7 +10.3 91 +10 +10 999.7 971.6
00 18.08 В 3 4000 м слаб. дождь 10/10 600 м
[Frnb Ns]
+12.3 +10.7 90 +11 +11 1000.6 972.6 +11.7 15
03 18.08 В 2 2000 м дождь 10/10 600 м
[Frnb Ns]
+13.3 +11.7 90 +13 +13 1001.6 973.6
06 18.08 СВ 2 10 км слаб. дождь 10/10 600 м
[Frnb Ns]
+14.4 +12.5 88 +14 +14 1002.0 974.1
09 18.08 С 1 20 км в посл. час переохл. осадки (гололёд) 10/10 600 м
[Frnb Ns]
+15.0 +13.2 89 +15 +15 1002.9 975.1
12 18.08 С 1 20 км {дождь} 10/10 600 м
[Frnb Ns]
+14.0 +12.6 91 +14 +14 1009.6 976.6 +15.0 14
15 18.08 СЗ 1 10 км слаб. дождь 10/10 600 м
[Frnb Ns]
+13.5 +12.1 91 +14 +14 1005.6 977.5
18 18.08 СЗ 2 10 км слаб. дождь 10/10 600 м
[Frnb Ns]
+13.2 +11.9 92 +12 +12 1006.6 978.5
21 18.08 СЗ 2 10 км слаб. морось {дождь} 10/10 300 м
[Frnb]
+12.5 +11.2 92 +12 +12 1008.5 980.2
00 19.08 З 2 4000 м дымка {дождь} 10/10 300 м
[Frnb]
+12.9 +11.5 91 +12 +12 1010.1 981.8 +12.3 2
03 19.08 З 2 20 км 10/10 600 м
[Cb calv]
+14.9 +11.7 81 +15 +15 1010.7 982.5
06 19.08 СЗ 1 20 км 6/3 1000 м
[Sc Ci fib]
+16.3 +11.0 71 +17 +24 1011.3 983.3
09 19.08 Ю 1 20 км 10/10 600 м
[Cb calv]
+16.1 +12.3 78 +17 +17 1011.6 983.6
12 19.08 ЮЗ 1 20 км 10/10 1000 м
[Sc]
+14.3 +12.3 88 +15 +15 1012.6 984.4 +17.4
15 19.08 ЮЗ 1 20 км 10/10 1000 м
[Sc]
+13.1 +11.3 89 +13 +13 1013.1 984.8
18 19.08 Ю 1 20 км 10/10 1000 м
[Sc]
+13.7 +11.4 86 +14 +14 1013.0 984.7
21 19.08 ЮВ 1 20 км 6/6 1000 м
[Sc]
+12.2 +10.7 91 +12 +12 1013.0 984.6
00 20.08 В 1 20 км 8/3 600 м
[Cb calv Ac trans Ci fib]
+17.8 +10.7 63 +19 +23 1012.6 984.7 +12.2
03 20.08 С 1 20 км 10/6 600 м
[Cb calv Ci fib]
+19.0 +12.5 66 +21 +26 комфорт 1011.9 984.2
06 20.08 З 1 20 км 10/5 600 м
[Cb calv Ci fib]
+20.7 +12.1 58 +24 +28 комфорт 1010.8 983.2
09 20.08 З 1 20 км 9/5 600 м
[Cb calv Ci fib]
+19.6 +13.1 66 +22 +23 комфорт 1010.5 982.8
12 20.08 В 1 20 км 10/6 1000 м
[Sc Ac trans]
+16.7 +13.0 79 +18 +18 1010.5 982.5 +21.9
15 20.08 ЮВ 2 20 км 3/0
[Ac trans]
+14.2 +12.2 88 +14 +14 1009.8 981.7
18 20.08 ЮВ 2 20 км 10/4 1000 м
[Sc Ac trans]
+14.5 +12.1 86 +14 +14 1008.6 980.5
21 20.08 В 2 20 км 10/8 1000 м
[Sc Ac trans]
+13.7 +11.4 86 +13 +13 1007.8 979.6
00 21.08 В 4 20 км 10/10 600 м
[Cb calv]
+17.7 +13.4 76 +17 +17 1006.7 979.0 +13.5
03 21.08 ЮВ 4 20 км 10/10 600 м
[Cb calv]
+19.4 +14.2 72 +21 +21 комфорт 1005.6 978.1
06 21.08 В 3 20 км 10/10 600 м
[Cb calv]
+20.9 +15.0 69 +24 +24 комфорт 1004.1 976.8
09 21.08 ЮВ 3 4000 м слаб. ливневой дождь 10/10 600 м
[Cb calv]
+17.7 +15.1 85 +18 +18 1004.8 977.2
12 21.08 В 2 20 км {ливн. осадки} 10/10 600 м
[Cb calv]
+16.3 +14.5 89 +16 +16 1005.2 977.4 +21.0 1
15 21.08 В 3 20 км {ливн. осадки} 10/10 600 м
[Cb calv]
+16.6 +14.4 87 +16 +16 1004.4 976.6
18 21.08 В 3 10 км слаб. ливневой дождь 10/10 600 м
[Cb calv]
+15.7 +14.1 90 +15 +15 1004.1 976.3
21 21.08 В 3 20 км {ливн. осадки} 10/10 600 м
[Cb calv]
+15.5 +13.5 88 +15 +15 1004.6 976.7

 

Местоположение метеостанции Завитая (Амурская область, Россия): широта 50.12 долгота 129.40 высота над уровнем моря 240 м.

В архиве по умолчанию представлена погода в Завитае за последнюю неделю. Архивные данные за месяц целиком и за предыдущие месяцы, начиная с января 2011 года, Вы можете получить, выбрав интересующий диапазон дат из раскрывающегося списка и нажав кнопку "Ввод!".


*Определитесь, кто Вы:
робот инопланетянин человек

Внимание! Время в таблицах - всемирное. Для получения местного времени необходимо прибавить поправку, которая равна 9 ч.

Смотрите также архив погоды в соседних городах и на ближайших метеорологических станциях:

Погода в Екатеринославке (Амурская область, Россия) (40 км)
Погода в Малиновке (Амурская область, Россия) (52 км)
Погода в Братолюбовке (Амурская область, Россия) (74 км)
Погода в Поярково (Амурская область, Россия) (80 км)
Погода в Архаре (Амурская область, Россия) (89 км)
Погода в Белогорске (Амурская область, Россия) (114 км)
Погода в Сектагли (Хабаровский край, Россия) (119 км)
Погода в Константиновке (Амурская область, Россия) (121 км)
Погода в Айгуне (Хэйлунцзян, Китай) (140 км)
Погода в Благовещенске (Амурская область, Россия) (143 км)

Пояснения к столбцам:

Ветер - указаны скорость ветра в м/с - средняя за 10 мин, порывы в срок и между сроками (в фигурных скобках) и направление, откуда дует ветер: С - северный, СВ - северо-восточный, В - восточный, ЮВ - юго-восточный, Ю - южный, ЮЗ - юго-западный, З - западный, СЗ - северо-западный.
Видимость - горизонтальная дальность видимости в метрах или километрах. При видимости от 1 до 10 км при отсутствии осадков обычно наблюдается дымка, при ухудшении видимости до 1 км и менее - туман. В сухую погоду видимость может ухудшаться дымом, пылью или мглою.
Явления - указаны атмосферные явления, наблюдавшиеся в срок или в последний час перед сроком; фигурными скобками обозначены явления, наблюдавшиеся между сроками (за 1-3 часа до срока); квадратными скобками обозначены град или гололедные отложения с указанием их диаметра в мм.
Облачность - указаны через наклонную черту общая и нижняя облачность в баллах и высота нижней границы облаков в метрах; квадратными скобками обозначены формы облаков: Ci - перистые, Cs - перисто-слоистые, Cc - перисто-кучевые, Ac - высококучевые, As - высокослоистые, Sc - слоисто-кучевые, Ns - слоисто-дождевые, Cu - кучевые, Cb - кучево-дождевые. Подробнее классификацию облаков см. в Атласе облаков (PDF).
T - Температура воздуха - температура, измеренная на высоте 2 м над землей.
Td - Температура точки росы - температура, при понижении до которой содержащийся в воздухе водяной пар достигнет насыщения.
f - Относительная влажность воздуха - влажноcть воздуха, измеренная на высоте 2 м над землей.
Te - Эффективная температура - температура, которую ощущает одетый по сезону человек в тени. Характеристика душности погоды. При расчете учитывается влияние влажности воздуха и скорости ветра на теплоощущения человека.
Tes - Эффективная температура на солнце - температура, которую ощущает человек, с поправкой на солнечный нагрев. Характеристика знойности погоды. Зависит от высоты солнца над горизонтом, облачности и скорости ветра. Ночью, в пасмурную погоду, а также при ветре 12 м/с и более поправка равна нулю.
P - Атмосферное давление - приведенное к уровню моря атмосферное давление.
Po - Атмосферное давление - измеренное на уровне метеостанции атмосферное давление.
Tmin - Минимальная температура - минимум температуры воздуха на высоте 2 м над землей.
Tmax - Максимальная температура - максимум температуры воздуха на высоте 2 м над землей.
R - Количество осадков - Количество выпавших осадков за период времени, мм. При наведении курсора мыши на число - период времени, за который выпало указанное количество осадков.
R24 - Количество осадков - Количество выпавших осадков за 24 часа, мм.
S - Снежный покров - Высота снежного покрова, см. При наведении курсора мыши на число - состояние снежного покрова и степень покрытия местности в баллах.